Location: Big Prairie
(40.6673°N, 82.0952°W)
Time: 20:28:32
(UTC+00:00)

Cosmos 841 Rocket - Pass Details

Date: 07 July 2022
Orbit: 746 x 772 km, 74.0° (Epoch: 11 August)

Event Time Altitude Azimuth Distance (km) Brightness Sun altitude
Exits shadow 06:12:31 49° 103° (ESE) 964 3.9 -26.1°
Drops below altitude 10° 06:17:28 10° 30° (NNE) 2,283 6.9 -25.9°
Sets 06:19:54 0° 25° (NNE) 3,216 8.0 -25.8°
